Wind_Speed
42 41 40 38 37 35 34 33 34 36 37 39 41 39 37 40 46 51 53 54 55 56 55 54 52 48 46 48 48 47 47 44 42 41 40 39 38 38 36 35 35 33 34 37 35 32 30 29 28 27 26 25 25 25 24 22 22 22 23 22 22 22 21 21 22 22 22 21 21 22 22 23 23 23 22 23 24 25 25 25 26 27 27 27 27 28
45 44 40 37 38 37 36 36 37 37 39 41 41 40 39 38 41 48 53 54 55 56 55 54 54 51 48 49 51 51 50 47 45 44 42 40 40 39 39 38 36 36 37 37 34 32 31 30 30 29 27 26 26 27 26 25 24 25 24 24 24 23 21 22 23 24 23 23 23 24 24 24 24 23 24 24 26 26 26 26 27 28 28 28 28 30
45 42 37 37 38 38 38 37 37 37 38 40 39 38 38 38 38 43 51 56 57 57 56 56 57 54 50 51 53 54 52 49 48 46 44 42 42 41 41 39 38 38 38 37 35 34 33 32 32 30 28 27 28 29 28 26 27 26 25 25 25 24 23 24 25 25 25 26 26 25 25 25 24 24 25 26 27 27 27 28 28 28 28 29 30 31
41 38 36 37 38 39 39 38 37 36 37 37 37 36 36 37 37 38 47 57 59 58 57 57 58 56 53 52 55 56 54 51 49 48 46 45 44 42 41 40 40 40 38 37 37 36 35 34 33 30 30 30 30 30 28 27 28 28 27 27 27 27 26 27 27 27 28 28 27 26 26 26 25 25 26 27 29 29 29 29 29 29 29 30 31 32
39 38 37 38 39 38 38 38 36 36 36 35 35 34 35 37 37 36 44 56 60 59 58 58 59 58 55 54 55 56 56 53 50 50 48 46 45 43 42 42 41 40 38 38 38 37 36 35 33 32 32 32 31 30 29 30 30 29 29 29 30 30 29 28 28 29 29 29 28 27 27 27 27 28 29 30 31 31 30 30 30 30 31 32 33 34
38 40 39 39 39 38 37 37 36 35 35 35 33 33 35 37 39 38 41 52 59 60 59 58 59 59 57 56 56 56 57 54 52 51 50 48 46 45 44 43 42 41 40 40 39 38 37 36 35 35 34 33 32 31 32 32 32 31 31 32 32 31 30 29 30 30 30 29 29 29 29 29 29 30 31 32 33 33 32 32 32 32 33 34 35 36
38 41 42 41 40 40 39 37 36 35 35 34 33 33 35 38 40 40 40 48 58 61 60 60 60 59 58 57 56 57 58 55 53 52 51 50 49 47 45 44 43 42 41 41 40 40 39 37 36 36 35 34 33 33 35 35 34 33 33 33 33 32 31 31 32 32 32 31 31 31 30 31 31 31 33 34 35 34 34 34 34 35 36 36 37 38
38 41 42 41 40 39 37 36 35 35 34 32 32 33 36 39 42 41 41 46 55 60 62 61 61 60 59 58 58 58 58 57 55 53 52 51 50 48 46 45 44 43 42 42 41 41 40 38 37 36 36 36 35 36 37 36 35 35 35 35 34 33 33 33 34 33 33 33 32 33 33 32 32 33 34 35 36 36 36 35 36 37 38 38 39 39
35 37 38 38 37 36 33 33 32 32 31 30 30 32 35 39 42 42 42 44 51 59 63 62 62 62 59 58 59 59 59 59 56 54 53 52 51 50 48 46 45 45 44 43 43 41 40 38 37 37 37 37 37 37 37 37 37 37 37 36 35 34 34 34 35 35 35 35 35 35 34 34 34 35 36 36 36 37 37 37 38 39 39 39 40 41
36 35 37 37 37 34 32 33 33 32 31 29 29 30 32 36 40 42 42 43 49 57 60 62 64 64 61 58 60 61 61 60 58 55 54 54 52 51 50 48 47 46 46 45 44 42 40 39 39 39 38 38 37 38 38 38 38 38 38 38 37 36 35 36 36 36 37 37 37 36 36 36 36 37 37 37 37 38 38 38 39 40 40 40 41 42
40 38 40 40 37 35 35 36 35 34 33 31 31 31 32 35 37 41 41 41 47 51 52 59 65 66 64 59 60 63 62 61 59 57 55 55 54 52 50 50 49 48 47 46 45 42 41 41 40 40 39 38 39 39 39 39 39 39 39 38 38 37 37 37 37 37 38 38 38 38 37 38 38 38 38 38 39 39 39 39 40 40 41 41 43 44
46 45 45 43 39 36 37 37 36 35 34 33 33 33 33 34 36 39 40 41 44 43 45 55 64 67 66 59 58 62 63 62 61 59 56 55 56 54 51 50 49 49 48 47 46 44 42 42 42 41 40 40 41 40 40 40 40 40 40 39 38 37 37 37 37 38 38 38 38 38 38 39 39 39 39 39 39 40 40 40 41 41 42 43 44 45
47 47 47 45 42 39 39 39 38 38 37 36 35 35 35 35 36 38 39 41 41 39 43 51 59 64 64 59 58 61 63 63 61 60 58 56 56 55 53 51 50 49 49 48 47 45 44 43 42 42 42 42 42 41 41 41 41 41 40 40 39 38 37 37 37 37 37 37 37 38 38 39 39 39 39 39 40 40 40 41 41 42 42 44 45 46
47 47 46 45 43 42 41 41 40 39 38 38 37 37 37 37 38 38 39 40 38 38 43 48 54 57 57 58 60 60 61 63 62 60 59 56 54 54 53 52 50 50 49 48 48 47 46 45 44 43 43 43 42 42 42 42 41 41 41 40 39 38 38 38 37 37 37 37 37 37 38 38 38 38 38 39 39 40 40 41 41 42 43 45 46 46
46 46 44 44 44 43 43 42 41 38 36 35 34 35 36 36 36 36 37 37 36 39 44 47 50 50 49 54 60 61 60 60 61 60 57 54 52 51 51 51 51 50 50 49 49 48 48 47 47 46 45 44 44 43 43 42 42 41 40 40 39 38 38 38 38 38 37 37 37 37 36 36 36 37 37 38 39 40 40 41 42 43 44 45 46 47
43 42 41 42 43 43 43 41 39 38 37 35 35 35 35 34 35 35 36 36 36 39 42 43 42 41 43 49 57 62 61 58 59 59 56 52 50 49 49 49 50 50 50 50 50 50 49 48 47 47 46 45 44 44 43 43 42 41 41 40 39 38 38 38 37 37 37 37 36 36 35 35 36 36 37 38 39 40 40 41 42 43 44 45 46 48
43 43 42 43 43 43 43 40 39 39 38 36 37 36 34 33 33 35 36 36 38 39 39 38 36 35 40 47 54 59 60 57 57 58 56 52 49 47 46 46 48 49 49 50 50 50 50 49 47 46 46 45 44 44 43 43 43 42 41 40 39 38 38 38 37 37 37 36 36 36 36 36 37 37 38 39 40 40 40 41 42 43 45 46 47 48
45 45 44 43 44 44 42 39 38 38 37 36 36 34 32 33 34 35 37 37 38 39 37 35 35 35 39 44 48 52 56 56 54 54 55 54 50 47 44 44 46 47 48 49 48 49 48 48 47 46 46 45 45 45 44 44 44 43 42 42 41 40 39 39 38 38 38 37 37 37 37 38 38 39 39 39 40 40 40 41 43 44 45 46 48 50
48 47 46 44 44 43 40 37 36 35 36 36 35 34 33 34 34 35 37 37 37 37 36 34 35 35 36 38 41 45 51 55 53 51 52 52 50 49 46 45 44 43 44 46 47 47 47 47 47 46 46 46 45 45 45 45 45 44 43 43 42 42 41 41 40 40 40 40 40 40 40 40 40 40 40 40 40 40 41 42 44 45 46 48 50 52
53 52 50 46 43 41 39 39 38 37 37 37 36 36 36 36 36 35 36 36 36 37 36 35 36 34 30 32 36 40 45 51 52 49 48 49 49 49 48 48 47 44 43 42 43 44 45 45 46 46 46 46 46 46 46 46 46 45 45 44 44 43 43 43 42 42 42 42 42 42 42 42 42 42 41 41 41 42 43 45 46 47 49 51 53 54
54 56 53 48 44 42 41 40 38 37 37 37 36 36 36 36 36 36 36 36 36 37 36 36 36 29 25 28 32 36 42 47 49 47 46 46 48 49 50 51 51 50 48 46 44 42 42 43 44 45 45 45 45 45 46 46 46 46 46 46 45 45 45 45 44 44 44 44 44 44 43 43 42 42 42 43 44 45 46 47 49 50 52 54 55 56
50 54 54 49 45 43 41 39 36 35 35 35 35 34 33 33 33 34 36 36 36 37 36 37 35 26 23 27 29 32 38 42 46 46 45 45 46 48 51 53 53 53 52 51 49 47 46 44 44 44 45 45 46 46 46 46 46 47 47 47 47 47 47 46 46 46 45 45 45 44 44 44 44 44 45 46 47 48 49 50 52 53 54 55 57 58
45 50 52 49 45 42 40 38 35 35 36 37 38 37 36 36 36 37 38 36 36 37 36 38 35 26 21 23 26 29 33 38 43 44 43 44 45 47 49 51 52 52 52 52 52 51 51 50 48 47 47 47 47 47 46 46 46 46 46 47 47 47 47 47 46 46 45 45 45 45 45 45 46 47 48 49 50 50 51 52 53 54 56 57 58 59
48 51 51 49 46 43 41 38 37 37 38 40 41 40 40 39 38 38 38 36 36 36 36 37 34 26 20 18 20 25 29 34 39 40 39 39 41 44 46 47 49 51 52 52 52 51 51 52 52 52 51 50 50 49 49 48 47 47 46 46 46 46 46 46 45 45 45 45 45 46 46 47 49 50 51 51 52 52 52 53 55 56 57 58 59 59
50 53 52 50 48 45 44 43 42 43 44 45 46 44 43 41 39 38 38 38 38 36 35 36 32 27 22 16 17 21 24 28 31 35 38 38 39 42 43 45 47 49 51 52 52 52 52 52 52 53 53 53 52 51 50 49 49 48 47 47 46 46 45 45 45 45 46 46 47 48 49 50 51 52 52 52 52 53 53 54 56 56 57 58 59 59
49 52 52 52 52 51 50 48 45 44 45 46 45 42 40 38 37 36 35 35 36 34 33 33 30 28 25 19 19 20 20 21 23 26 33 37 39 41 42 44 46 47 49 50 51 52 52 53 53 52 52 53 53 53 52 52 51 50 50 49 48 48 48 47 48 48 49 50 50 51 52 52 52 53 53 53 53 54 54 55 56 57 58 58 59 59
49 49 49 50 51 50 47 43 39 38 40 39 37 35 34 34 33 33 33 33 33 32 33 32 30 30 28 23 23 24 20 18 20 22 27 32 37 40 42 43 44 45 47 47 48 49 50 52 52 52 51 52 52 53 53 53 53 53 53 52 52 52 51 51 52 52 52 53 53 54 55 55 55 55 55 55 54 54 55 56 57 57 58 58 58 58
53 52 51 50 49 47 43 40 38 38 37 36 34 32 32 32 33 34 35 34 33 34 34 31 29 32 31 26 26 28 22 19 22 25 28 30 33 36 39 41 42 44 45 45 46 47 49 50 51 51 52 52 52 52 52 53 53 53 53 54 54 54 54 54 55 55 56 56 56 57 57 56 56 55 55 54 54 54 55 55 56 56 57 57 57 57
55 54 53 50 48 45 43 41 41 40 39 39 38 36 35 36 37 39 38 37 37 38 35 32 30 32 33 30 30 31 28 24 26 28 30 30 32 34 36 38 40 42 43 44 45 47 48 50 50 51 52 52 52 51 51 51 52 52 53 53 54 54 55 55 56 56 56 56 56 56 55 55 54 54 53 53 54 54 54 55 55 56 56 57 57 57
57 56 54 52 49 46 44 43 42 42 43 43 42 41 41 42 42 42 40 39 40 39 37 37 35 34 35 35 33 33 30 27 25 26 28 29 32 35 37 40 41 42 43 44 45 46 47 48 49 49 49 50 50 50 51 51 52 52 53 53 54 54 54 54 55 55 55 55 54 54 54 53 53 53 53 53 53 54 54 55 55 56 56 57 57 57
58 58 56 54 52 50 47 46 44 44 44 45 45 45 45 44 45 45 43 43 43 39 39 41 37 32 33 34 32 30 29 29 28 28 29 32 35 38 41 43 44 45 45 46 46 46 47 47 47 47 47 48 49 49 50 50 51 51 52 53 53 54 54 54 54 54 53 53 53 53 52 52 52 52 52 53 53 54 54 55 55 56 56 57 57 57
58 57 56 54 53 52 50 48 48 47 46 47 48 47 46 47 47 47 47 47 44 40 41 41 34 28 28 28 27 28 30 32 31 31 34 37 40 42 43 43 43 43 43 44 44 45 46 47 47 47 47 48 49 49 50 50 51 51 52 52 53 53 53 53 52 52 52 51 51 51 51 51 51 52 52 52 53 53 54 55 55 56 56 57 57 58
55 55 55 53 52 51 50 50 50 48 49 51 51 47 47 48 49 49 49 46 43 42 42 37 30 28 28 27 28 31 33 34 34 34 36 38 40 41 41 41 40 40 41 42 42 43 43 44 45 46 47 48 49 50 50 50 51 51 51 51 51 52 51 51 51 50 50 49 49 49 50 51 51 52 52 53 53 54 55 55 56 56 57 57 58 58
49 49 50 50 49 49 49 48 47 49 52 52 49 46 48 50 50 50 48 43 41 41 40 35 33 34 34 32 32 33 34 35 35 36 37 38 38 38 38 39 38 38 39 40 40 40 41 41 43 44 46 47 49 50 50 50 51 51 51 51 50 50 50 50 50 49 49 49 49 49 50 51 52 52 53 54 55 56 56 56 57 57 58 58 59 60
43 44 45 45 46 47 48 46 47 51 52 49 47 49 51 50 50 48 46 43 42 42 40 38 38 38 36 33 33 34 35 37 38 37 37 38 37 37 37 37 38 38 38 38 39 40 40 41 42 42 44 46 47 48 49 50 50 50 50 50 50 50 50 50 50 50 50 50 50 50 51 52 53 54 55 56 57 57 58 58 59 59 60 61 62 63
46 46 46 47 47 49 50 51 52 53 51 49 50 51 50 49 48 48 47 45 43 42 40 39 37 35 34 34 35 36 38 40 40 39 37 37 36 36 37 37 37 38 40 40 41 42 42 42 42 42 43 44 45 45 46 47 47 48 48 49 49 50 50 50 50 51 51 51 51 52 53 54 55 56 57 57 58 59 60 60 61 62 63 63 64 65
50 51 50 51 51 52 53 54 53 53 52 52 52 51 50 48 46 46 47 46 42 41 40 39 37 36 35 36 37 38 39 40 40 38 36 36 35 36 38 39 39 40 41 42 42 41 41 40 40 41 41 42 42 43 44 45 45 46 47 48 48 49 50 50 51 52 52 53 53 54 54 55 56 58 59 60 60 61 62 62 63 64 64 65 66 67
54 54 53 53 54 55 55 55 55 57 56 53 53 54 52 48 44 43 46 45 42 41 41 40 39 38 36 36 37 38 40 42 40 37 35 35 36 39 41 41 41 41 40 41 40 40 40 40 40 40 40 39 40 40 41 42 43 44 45 46 47 48 49 50 51 52 53 54 55 56 57 58 59 60 61 61 62 63 63 64 65 66 67 68 69 70
56 55 54 55 56 57 58 59 60 59 55 52 52 52 50 47 44 43 45 45 41 39 40 40 39 38 37 37 38 39 41 41 40 40 39 38 39 41 42 41 41 41 41 41 41 41 41 41 41 41 41 40 40 40 41 42 43 43 44 45 46 47 48 49 52 53 55 56 57 58 59 60 61 62 62 63 64 65 65 66 68 69 70 71 72 73
59 58 57 59 59 59 60 60 60 57 54 53 52 50 48 47 45 44 46 45 41 38 38 38 39 39 39 40 41 42 42 42 43 45 44 42 41 42 41 42 43 43 43 44 43 42 42 41 41 41 41 41 41 41 42 42 43 43 43 44 45 45 47 50 52 53 55 57 58 59 60 61 62 63 64 65 66 67 69 70 71 72 72 72 73 72
63 61 60 60 59 59 60 60 59 57 54 52 51 49 47 47 47 47 46 43 40 38 36 36 38 40 41 43 44 43 43 43 44 46 45 43 43 42 41 41 42 42 43 44 44 44 44 43 42 41 41 41 41 40 40 41 41 41 42 43 43 45 47 49 51 52 54 56 58 60 61 63 64 65 66 67 68 69 70 70 70 70 69 69 69 68
64 63 62 61 60 60 59 58 58 56 52 50 50 50 50 51 50 47 43 40 39 38 37 38 39 40 42 44 44 44 44 43 43 44 44 43 43 43 42 41 41 42 43 44 44 45 45 45 44 43 43 42 42 41 41 41 41 41 41 42 43 45 47 47 48 50 52 53 55 56 58 59 60 61 62 63 64 64 64 64 64 65 65 65 65 66
63 63 63 63 62 61 59 59 58 55 51 50 52 53 53 51 46 41 39 40 41 41 43 44 43 43 45 46 45 45 45 44 43 43 43 44 44 44 45 44 43 43 43 43 44 45 45 46 46 46 46 45 45 45 44 44 43 43 43 43 44 45 45 46 46 48 48 50 51 52 53 54 55 56 57 58 58 59 60 60 61 62 63 64 65 66
61 62 62 62 62 63 63 62 58 53 49 48 50 50 48 45 43 41 42 44 45 46 47 48 48 49 48 46 45 45 44 44 44 43 44 44 45 45 46 45 44 44 43 43 44 45 45 46 47 47 48 48 47 47 46 46 45 45 45 45 45 45 45 46 46 47 47 48 50 51 52 53 54 55 56 57 58 59 59 60 61 62 63 64 65 66
64 63 63 61 61 61 60 56 51 48 47 48 49 48 46 46 47 48 49 48 48 48 48 49 50 50 49 47 47 46 45 45 45 44 44 44 45 45 46 45 45 44 44 43 44 44 45 46 47 47 48 48 48 49 48 48 48 48 47 47 47 47 47 48 48 48 49 50 50 51 52 54 54 55 57 58 58 59 60 61 62 63 64 65 66 66
65 63 62 60 58 57 55 52 50 50 51 53 54 53 52 51 52 52 52 51 51 50 49 49 49 49 49 49 49 49 49 48 46 46 46 45 45 46 46 46 46 45 45 44 44 45 45 46 47 47 48 49 50 50 50 50 50 50 49 49 49 49 49 49 50 50 51 51 52 53 53 54 55 56 57 58 58 59 60 61 62 63 64 65 65 66
64 63 62 61 60 59 57 54 53 53 53 55 56 56 55 54 54 54 54 53 52 52 51 51 51 51 51 50 50 51 52 51 49 48 47 46 47 47 47 47 47 47 47 47 47 47 48 48 49 49 50 51 51 51 52 52 52 51 51 51 51 51 51 51 51 52 52 53 53 54 54 55 55 56 56 57 57 58 59 60 61 62 62 63 63 63
64 63 63 62 62 61 58 54 54 55 55 56 57 57 57 57 56 56 55 54 53 53 53 53 53 53 53 53 53 53 53 53 52 50 49 48 48 48 48 48 48 49 49 50 49 49 50 50 51 51 52 53 53 53 53 54 54 54 54 54 54 54 54 54 54 54 54 54 55 55 55 55 56 56 57 57 57 57 58 58 59 60 61 61 61 61
63 63 63 63 62 62 60 58 58 59 58 58 58 59 58 58 57 57 56 55 54 54 55 56 56 57 57 57 56 56 55 55 54 53 53 52 51 51 50 50 49 50 50 50 50 49 49 49 49 50 50 51 52 53 54 54 55 55 56 56 57 57 57 57 56 56 56 56 56 56 56 56 57 57 57 58 58 58 59 59 60 61 61 61 60 60
66 66 65 65 66 66 64 62 62 61 60 59 59 59 59 60 60 61 60 59 59 58 59 59 59 59 59 59 59 58 58 57 57 57 57 56 55 54 52 50 49 49 49 50 50 49 49 49 49 49 50 51 51 52 54 55 56 56 57 58 58 58 58 58 58 58 58 58 58 58 58 58 58 59 59 60 60 61 61 61 62 62 61 61 60 60
67 67 67 68 68 67 64 62 62 63 62 61 61 61 62 63 64 64 64 64 64 64 63 62 61 61 61 60 60 60 60 59 59 59 59 58 57 56 54 52 52 51 51 51 51 50 50 51 51 52 52 53 53 54 55 55 57 58 59 59 59 59 59 59 60 60 60 60 60 60 60 60 60 60 61 61 61 62 62 62 63 63 62 62 61 62
Wind_Direction
233 234 235 235 238 240 241 244 248 248 250 255 257 256 252 243 235 233 232 231 234 236 235 232 225 221 223 226 227 225 224 223 223 223 223 222 222 224 225 224 224 223 225 228 228 229 231 234 238 241 245 249 255 258 257 253 250 249 249 250 251 252 254 255 254 254 253 254 254 256 257 258 261 263 264 266 267 270 272 275 277 278 280 283 285 286
234 236 234 233 235 238 239 239 243 245 248 252 257 259 259 252 241 236 233 231 232 233 234 234 227 220 221 225 227 227 225 224 224 224 223 223 223 224 225 225 224 225 227 230 231 231 233 236 239 242 245 249 253 255 254 252 250 249 250 251 252 253 254 254 254 254 254 253 253 254 256 258 260 261 262 263 266 268 270 272 274 276 280 283 285 285
237 238 234 232 235 238 240 240 242 244 247 251 256 261 262 257 248 241 237 234 232 231 232 233 228 220 219 223 226 228 226 225 226 225 224 224 224 225 226 226 226 227 229 232 232 233 235 237 240 243 247 249 250 252 252 253 253 253 252 251 253 253 251 251 252 253 254 253 253 255 257 260 262 262 262 264 265 267 269 271 273 277 280 282 284 285
237 236 230 232 235 235 238 239 239 242 245 250 254 259 263 260 252 245 240 236 234 233 233 233 229 221 218 221 225 228 228 226 227 227 226 226 226 227 228 229 230 230 231 233 234 236 238 239 242 244 246 248 248 250 251 251 252 252 251 250 251 251 249 249 249 250 252 254 257 259 261 262 263 263 264 265 266 267 269 272 274 277 280 281 283 284
233 232 228 231 234 233 235 236 237 239 243 248 252 255 261 260 253 247 241 237 235 234 234 235 232 223 218 221 225 228 230 227 227 229 228 228 229 230 231 230 232 233 234 235 237 238 240 242 244 245 246 248 248 250 250 248 248 248 249 251 252 252 251 251 252 252 253 255 257 259 260 262 263 264 265 266 267 269 271 273 276 278 279 280 282 283
230 232 230 230 232 234 235 237 238 240 242 245 249 253 256 257 252 246 243 239 236 235 234 234 233 226 220 220 224 228 231 229 228 230 230 229 231 232 234 234 233 234 234 237 238 239 241 243 244 246 247 249 248 247 247 247 246 246 249 252 253 254 254 254 255 255 256 256 257 257 259 260 261 263 265 266 268 271 273 274 276 278 278 279 281 283
227 231 231 228 229 231 232 235 238 240 242 244 248 249 249 250 249 247 245 241 237 235 233 233 234 230 221 220 224 227 231 231 228 229 230 230 232 234 235 236 237 237 237 238 239 240 241 242 243 245 246 247 246 245 246 247 248 249 249 250 251 253 254 255 255 256 257 258 258 259 259 259 260 262 264 266 268 270 272 274 276 277 277 279 280 282
226 230 231 229 229 230 233 236 238 240 242 244 245 244 243 245 247 246 245 244 239 235 232 231 233 232 224 220 224 226 230 232 230 228 230 231 232 234 235 236 237 238 239 239 239 240 241 241 241 242 243 245 245 246 247 249 250 250 250 250 251 252 253 255 257 258 259 259 260 260 260 261 262 262 263 265 267 269 271 273 274 275 277 279 280 281
231 234 235 234 232 232 234 236 236 237 239 239 240 240 241 243 245 245 245 245 243 238 234 232 232 233 228 220 223 227 229 232 232 230 230 231 233 235 235 235 235 237 239 239 240 240 241 241 240 240 241 243 245 247 249 250 251 251 251 252 253 253 254 255 256 258 259 260 260 261 262 263 263 264 265 266 268 270 271 273 273 275 277 278 280 281
233 235 236 235 232 230 230 231 231 231 233 234 236 238 240 242 244 245 246 247 246 241 238 235 232 233 231 222 221 226 229 231 233 232 231 232 234 236 236 236 236 237 238 240 240 241 242 242 242 242 243 244 245 247 249 250 251 253 253 254 254 254 254 254 255 257 259 260 261 262 263 264 265 266 267 268 270 271 273 274 274 276 277 279 280 281
231 232 234 235 232 230 230 230 229 229 230 231 234 235 237 240 242 244 246 248 248 245 242 239 235 234 234 226 220 225 229 230 233 234 233 232 234 236 237 238 238 238 239 240 240 240 242 243 243 244 245 246 246 247 249 250 252 253 254 254 253 253 253 254 255 256 258 260 261 263 264 265 266 267 268 270 272 273 274 275 276 277 279 280 280 280
230 230 233 234 233 232 233 233 233 233 234 235 236 237 237 239 241 243 245 247 249 248 245 242 239 237 237 232 223 223 227 230 232 234 234 234 235 236 237 238 239 240 240 240 241 240 241 242 244 245 246 246 248 249 250 251 252 253 254 254 254 254 255 255 255 256 257 259 261 262 263 265 266 267 269 271 272 274 275 276 277 278 279 280 280 281
230 230 232 233 232 232 234 235 236 237 238 239 239 239 239 240 242 245 247 249 250 250 247 244 241 240 241 238 229 224 226 229 231 233 235 235 235 237 238 238 239 240 241 241 241 241 241 242 243 245 246 248 249 250 251 251 252 253 253 254 255 256 256 256 257 257 258 259 261 262 263 264 265 267 269 270 272 273 274 276 277 278 279 280 280 281
231 232 233 234 233 233 235 237 238 240 241 242 242 242 243 244 247 251 253 254 254 252 248 245 243 242 242 242 237 229 226 228 230 233 235 236 236 237 239 240 240 240 241 241 242 243 243 242 243 243 245 247 249 250 251 251 251 251 252 253 254 255 256 256 257 258 259 260 260 261 263 264 266 268 270 271 272 273 275 276 277 278 279 279 280 282
236 237 238 238 237 237 237 237 238 238 239 240 242 243 245 249 252 254 256 258 258 255 251 248 245 243 242 243 242 235 230 229 230 233 235 237 238 239 238 240 241 240 240 241 242 243 244 244 245 245 245 246 247 249 250 251 251 252 252 253 254 255 256 256 257 258 260 261 262 263 265 267 269 270 271 272 273 273 274 275 276 277 278 279 281 283
234 237 240 241 241 241 241 240 239 238 238 239 240 241 245 249 249 250 252 254 256 255 254 252 249 246 243 243 242 239 234 231 231 233 236 238 239 241 240 239 241 242 242 242 242 243 245 246 247 248 248 249 249 250 250 250 251 252 253 254 255 255 256 257 258 260 261 262 264 265 266 268 269 270 271 271 272 273 274 275 276 277 278 280 282 282
234 236 236 236 238 240 241 240 240 239 240 242 242 244 247 247 246 249 251 251 253 255 256 255 251 247 244 242 242 241 238 234 232 234 236 238 239 241 243 243 242 242 244 245 244 245 246 247 249 250 251 252 252 252 251 250 251 252 253 254 255 256 257 258 259 260 261 262 263 265 266 267 268 269 270 271 272 274 275 276 277 278 279 281 282 283
237 239 238 235 235 235 235 236 236 236 236 238 240 242 243 242 243 246 249 250 252 255 257 256 252 249 245 243 241 241 240 237 234 234 236 239 240 241 242 244 244 244 244 246 247 247 248 249 250 251 251 252 252 252 251 251 252 252 252 253 254 256 257 258 259 260 261 262 263 264 266 267 268 269 270 272 273 275 276 277 278 279 281 282 283 284
237 239 239 235 233 233 234 235 236 236 236 236 238 238 238 239 242 243 247 251 254 256 258 256 254 250 246 245 244 243 242 239 236 235 237 240 242 243 242 242 244 245 246 247 248 249 251 251 252 252 252 252 251 251 251 251 252 252 253 253 254 256 257 259 261 261 262 262 263 264 265 267 268 269 270 272 273 275 276 277 279 281 282 283 284 284
239 239 236 231 230 231 233 236 237 239 239 238 237 237 237 239 241 242 245 250 253 256 257 255 253 249 244 247 248 246 245 243 239 237 238 241 244 245 245 244 243 244 245 246 248 249 250 252 253 253 253 253 253 252 252 252 253 253 254 255 256 257 259 260 262 263 263 264 264 265 265 266 267 269 270 271 273 275 276 278 280 281 282 282 283 283
238 237 232 226 225 228 231 234 237 240 241 241 239 239 241 242 243 244 246 248 253 256 258 259 257 250 244 247 248 246 245 245 243 240 239 241 244 246 247 247 246 244 244 244 245 247 248 250 251 253 254 255 255 254 254 254 254 255 256 257 258 259 260 262 263 264 264 265 265 265 266 267 267 268 269 271 273 276 278 280 280 281 281 282 282 282
237 235 231 226 225 228 231 234 236 238 240 242 241 240 241 243 244 246 247 248 251 254 256 260 259 250 242 244 245 243 243 243 243 242 241 241 242 244 246 248 249 249 247 246 245 245 246 248 249 251 253 254 255 256 256 256 256 256 257 258 259 260 261 262 263 264 264 265 265 265 266 266 266 268 270 273 275 278 279 280 280 281 282 282 282 281
237 235 232 229 227 227 230 232 234 237 239 239 240 238 237 237 237 240 243 244 246 249 251 256 257 248 238 240 241 241 240 239 240 240 241 241 241 243 244 246 249 250 251 250 249 247 246 247 248 249 250 252 253 255 256 257 258 258 259 260 260 261 262 263 263 264 264 264 264 264 264 265 267 270 273 276 278 279 279 279 279 281 281 281 280 279
237 235 233 231 228 226 227 229 231 234 236 239 240 240 239 238 238 239 241 243 244 246 250 254 255 251 242 237 240 243 241 240 238 238 238 239 240 241 243 245 247 249 250 251 251 250 249 248 248 248 249 251 252 253 255 257 258 259 260 261 262 262 263 264 264 264 264 263 263 264 265 268 270 273 275 277 278 279 278 278 279 280 280 279 278 278
237 236 234 231 229 227 226 228 230 233 236 238 239 238 238 238 238 238 240 242 243 245 249 253 254 256 253 243 238 241 242 243 241 238 238 238 238 240 241 243 245 247 248 250 251 252 252 251 250 249 249 250 251 253 254 256 257 258 259 260 261 262 263 263 263 263 263 264 265 267 269 271 273 275 276 277 278 278 278 278 278 279 278 277 277 277
240 240 239 235 233 232 232 235 239 242 242 242 242 243 243 243 245 246 247 248 248 246 249 253 256 258 257 248 239 235 236 244 246 241 239 238 238 240 241 242 244 245 247 248 250 251 252 253 253 253 252 252 252 253 255 256 257 258 259 260 261 261 262 262 263 263 264 265 267 269 271 273 274 276 277 278 278 277 277 278 277 277 277 277 277 277
237 237 237 238 239 240 241 244 248 250 250 250 253 255 255 255 255 256 255 254 253 251 250 251 255 257 254 246 242 242 239 243 248 245 241 239 239 240 242 243 244 244 245 247 248 250 252 253 254 255 256 256 256 257 257 257 258 259 260 260 261 262 262 263 263 264 265 267 268 270 272 274 275 276 277 278 278 277 276 276 276 276 276 276 277 278
234 234 235 237 238 239 241 242 243 245 247 249 249 250 251 251 249 249 251 252 252 251 249 246 247 253 254 248 249 254 249 237 238 241 240 239 239 240 242 244 245 246 246 246 247 249 251 253 254 255 257 258 258 259 259 259 259 260 260 261 262 262 263 263 264 265 267 268 270 271 273 274 275 276 276 276 276 275 275 275 275 276 276 277 278 278
233 236 238 237 237 238 239 239 239 240 241 240 240 239 239 239 239 242 246 246 244 245 246 244 241 243 249 249 249 252 247 232 230 237 240 241 244 244 244 245 245 246 246 246 246 247 249 250 251 252 254 255 256 257 258 259 259 260 261 261 262 263 263 264 265 267 268 270 271 272 274 274 275 275 275 275 275 275 275 276 276 277 277 278 278 279
235 237 237 236 236 237 238 239 240 239 238 238 237 237 236 237 240 244 245 243 243 245 245 244 240 238 241 243 244 247 249 246 241 244 247 249 250 250 248 247 246 245 245 245 245 245 247 248 249 250 251 253 254 256 257 258 259 260 261 262 263 264 265 266 267 269 270 271 273 274 274 275 275 275 275 275 275 276 276 276 276 277 277 278 278 279
234 235 236 234 234 235 235 237 238 238 237 237 235 235 238 242 245 247 247 244 244 246 246 245 244 241 240 243 248 254 259 261 258 254 253 254 254 251 250 248 247 246 246 246 246 247 248 249 250 251 252 253 254 255 256 258 259 260 262 263 264 265 266 267 269 270 271 272 273 273 274 274 274 274 275 275 275 275 276 276 276 277 278 278 279 280
232 232 232 232 232 234 234 235 236 236 236 236 234 236 242 246 247 246 245 245 245 248 248 247 249 251 251 255 259 261 261 262 260 256 254 255 255 255 253 253 254 254 254 254 253 253 253 253 253 254 254 256 256 257 257 258 259 260 261 262 264 265 266 267 269 270 271 272 272 273 273 273 273 273 273 274 274 275 275 276 277 277 278 279 279 280
231 230 231 231 231 233 234 233 234 235 235 235 237 240 244 246 246 245 245 246 248 251 251 252 257 263 262 257 254 252 255 259 260 260 258 258 259 261 261 261 261 261 262 262 261 260 260 259 259 259 259 259 260 260 261 261 261 262 263 263 265 266 267 269 270 271 272 272 272 272 272 272 273 273 273 274 274 275 276 276 277 278 278 279 280 281
231 231 231 232 232 233 234 234 236 238 237 238 241 242 242 243 245 246 248 251 253 254 255 256 258 256 253 250 250 252 256 260 262 262 262 263 263 265 265 266 265 264 264 264 264 265 264 264 263 262 262 262 262 262 263 263 264 265 266 267 268 269 271 271 272 272 272 272 272 272 272 272 273 273 274 274 275 275 276 277 277 277 278 279 280 281
230 231 233 234 235 235 236 236 238 240 241 242 242 241 240 242 245 248 251 252 252 253 252 250 250 252 254 256 258 257 257 259 259 260 261 264 266 268 269 269 269 268 267 266 265 264 264 263 263 262 263 263 264 264 265 266 267 269 270 271 271 272 272 273 273 273 272 272 271 271 271 271 272 272 273 274 274 275 276 276 277 277 278 279 280 282
226 228 231 233 235 236 236 236 238 242 244 244 244 243 243 244 247 250 251 250 250 253 253 252 254 258 261 260 258 257 258 259 259 259 263 268 270 270 271 270 269 269 268 267 266 266 266 266 266 266 266 267 267 268 268 269 269 269 270 271 271 272 272 273 273 273 272 271 271 270 270 271 271 272 272 273 274 275 275 276 277 278 279 280 281 283
225 226 228 229 232 234 237 239 241 244 245 244 244 245 245 244 245 249 251 250 251 254 256 256 256 258 259 259 260 261 263 263 261 261 267 271 271 270 269 268 269 270 271 272 272 273 274 273 273 272 271 271 271 270 270 270 270 270 270 271 271 271 271 272 272 271 271 270 270 270 270 271 271 272 273 273 274 275 276 277 278 279 280 281 283 284
225 226 227 228 229 230 233 235 237 239 240 240 241 242 243 242 242 245 248 249 249 253 257 257 256 257 258 259 260 261 263 263 263 265 268 269 269 269 269 270 271 273 274 276 277 278 278 278 277 276 275 275 273 272 271 270 270 270 270 270 270 270 271 271 271 270 270 270 270 271 271 272 273 274 274 275 276 277 278 279 279 280 281 283 284 285
227 227 227 227 228 230 232 234 237 239 241 242 243 244 245 246 244 245 248 249 248 250 254 256 257 257 258 257 258 260 262 264 265 266 267 267 267 268 270 272 274 275 276 277 277 278 278 279 280 280 280 279 276 273 272 271 271 271 272 271 270 270 270 270 269 268 269 269 270 271 272 273 273 274 275 276 277 277 278 279 280 281 283 284 285 286
227 227 226 227 230 232 234 236 240 242 244 244 245 245 246 247 247 246 248 249 248 247 250 254 258 259 259 258 258 259 262 263 263 266 268 268 269 270 271 272 273 274 275 276 276 277 277 278 279 280 279 279 277 276 276 275 275 276 276 274 274 274 272 269 268 268 268 269 269 270 271 271 272 273 274 275 276 277 279 280 281 282 283 284 285 286
230 229 229 231 233 234 235 238 241 243 243 245 247 248 247 247 247 247 249 252 252 252 252 254 255 257 258 259 259 260 261 261 262 266 268 269 270 270 270 271 272 273 274 275 276 277 277 277 278 278 278 278 278 278 278 278 278 278 277 277 277 276 273 271 270 270 270 270 270 271 271 272 273 274 275 276 277 278 279 280 281 282 283 284 285 286
233 233 233 234 235 236 237 239 242 244 245 246 248 248 246 245 246 250 256 259 260 260 260 257 255 254 256 257 258 259 260 260 261 264 267 269 270 271 271 271 271 271 272 274 275 275 277 277 278 278 278 278 278 278 279 279 279 278 278 277 276 273 272 272 272 272 272 272 272 273 273 274 275 275 276 277 278 279 280 281 282 282 283 284 284 285
238 237 237 237 238 238 238 238 241 245 246 246 246 247 248 250 253 259 263 264 264 262 260 258 256 254 252 253 255 256 258 260 261 263 266 268 269 271 271 271 271 271 271 272 273 274 275 276 277 277 278 278 278 278 279 279 279 278 278 277 275 274 275 275 275 274 274 275 275 275 275 276 276 277 278 279 279 280 281 281 282 282 283 283 284 284
236 237 239 240 241 240 240 242 246 251 251 249 249 252 256 260 262 261 259 259 258 257 256 256 256 254 253 253 253 254 255 258 260 262 265 267 268 270 270 271 271 271 270 271 272 272 273 274 275 276 277 277 278 278 278 278 278 278 278 278 278 279 280 280 279 279 279 279 279 279 278 278 279 279 279 280 280 280 281 281 281 282 282 283 283 284
236 237 239 241 242 243 244 247 249 250 249 248 250 252 254 256 256 255 255 255 254 255 255 255 256 256 256 256 255 254 254 256 259 262 264 265 267 268 269 270 270 270 270 270 270 271 272 273 274 275 276 277 277 277 277 277 277 278 279 279 280 281 282 282 282 282 282 282 282 282 281 281 281 280 280 280 280 280 281 281 281 281 282 282 283 284
237 237 237 238 239 240 242 243 243 243 244 245 247 248 249 250 251 253 256 258 258 259 258 257 256 256 256 255 255 256 256 257 259 260 262 264 265 266 266 267 268 269 270 270 270 271 271 272 274 274 275 275 276 276 277 278 279 279 280 280 280 281 281 281 282 282 282 282 282 282 282 282 282 282 282 281 281 281 281 281 281 281 282 282 283 283
236 236 236 236 236 237 239 241 242 243 244 246 248 249 251 252 252 254 256 259 261 262 261 260 258 256 254 254 255 256 257 258 258 258 260 262 263 264 265 266 267 268 270 270 271 271 272 272 273 273 274 275 276 276 278 278 279 279 280 280 280 280 280 281 281 281 282 282 283 283 284 284 284 284 283 283 283 282 282 282 282 281 282 282 283 284
236 237 237 237 237 239 241 243 243 244 245 246 247 249 251 253 254 256 258 260 261 262 262 262 261 258 256 254 254 254 256 257 259 260 260 261 261 262 262 264 267 269 270 270 271 271 271 272 273 274 274 275 276 277 278 278 279 279 280 280 281 281 281 281 281 282 282 283 283 284 284 285 285 285 284 284 283 283 282 282 282 282 282 283 284 285
239 239 239 240 241 243 243 242 242 243 244 245 247 250 254 257 259 261 263 264 264 262 261 260 260 258 256 254 254 254 255 257 259 261 262 262 262 260 259 261 264 267 269 270 270 270 271 272 273 274 275 276 277 278 278 278 279 279 279 280 280 281 281 281 281 282 282 283 283 284 284 284 284 284 284 283 283 283 283 283 283 283 284 284 285 286
238 238 239 240 241 242 242 242 243 246 248 249 252 255 258 260 262 263 263 263 263 261 259 257 257 256 256 255 256 256 257 258 260 262 263 264 263 262 260 259 261 264 265 266 267 269 270 272 273 275 276 277 278 279 279 279 279 279 279 279 278 279 279 279 280 280 281 281 282 282 282 282 282 282 282 282 282 283 283 283 284 284 284 285 285 284
238 238 239 240 241 243 245 246 247 249 251 252 253 255 257 259 261 262 263 263 263 261 259 257 255 255 256 256 256 257 258 260 262 263 264 265 265 264 262 261 262 263 264 264 265 266 269 271 274 275 277 278 278 279 279 279 279 278 278 277 277 277 277 278 278 279 279 279 279 279 280 280 280 280 281 281 282 282 282 283 283 283 283 283 282 281
Height
5782 5783 5786 5789 5792 5793 5796 5798 5798 5800 5802 5803 5806 5808 5810 5811 5814 5816 5818 5820 5822 5823 5826 5829 5834 5841 5843 5843 5845 5847 5849 5850 5852 5853 5855 5858 5860 5861 5864 5866 5867 5870 5870 5869 5872 5875 5877 5877 5878 5879 5880 5881 5881 5881 5882 5883 5884 5883 5884 5884 5884 5884 5884 5885 5885 5885 5885 5884 5884 5884 5884 5884 5884 5884 5885 5885 5884 5884 5884 5884 5883 5882 5882 5881 5881 5880
5778 5780 5783 5785 5787 5789 5791 5793 5795 5797 5799 5801 5803 5806 5808 5810 5812 5813 5814 5816 5818 5819 5823 5825 5829 5836 5840 5840 5841 5842 5844 5847 5848 5850 5852 5855 5857 5858 5860 5862 5864 5866 5866 5867 5870 5873 5874 5875 5875 5876 5878 5879 5879 5879 5879 5880 5880 5881 5881 5882 5881 5882 5883 5883 5882 5882 5882 5882 5882 5882 5882 5882 5882 5883 5883 5883 5882 5882 5882 5882 5881 5880 5880 5879 5879 5878
5776 5778 5781 5782 5784 5786 5788 5791 5792 5794 5796 5798 5801 5804 5806 5808 5808 5810 5811 5813 5813 5815 5818 5820 5823 5830 5835 5835 5835 5837 5840 5844 5845 5847 5850 5851 5853 5855 5857 5859 5861 5863 5863 5865 5868 5870 5871 5872 5872 5874 5876 5877 5877 5876 5877 5877 5877 5878 5879 5879 5879 5880 5881 5880 5880 5880 5880 5879 5879 5879 5880 5880 5881 5881 5881 5880 5880 5880 5879 5879 5878 5878 5877 5877 5876 5875
5774 5776 5778 5779 5780 5782 5784 5787 5789 5791 5793 5795 5798 5801 5804 5805 5805 5806 5807 5808 5809 5811 5814 5816 5818 5824 5830 5831 5831 5832 5836 5840 5842 5844 5847 5848 5850 5853 5856 5857 5858 5860 5862 5863 5865 5867 5868 5869 5871 5873 5873 5873 5874 5874 5876 5876 5875 5875 5875 5876 5876 5877 5877 5877 5878 5878 5877 5877 5877 5877 5877 5878 5878 5878 5878 5877 5877 5876 5876 5876 5876 5875 5875 5874 5873 5872
5770 5771 5775 5775 5776 5778 5781 5783 5785 5787 5790 5793 5795 5798 5800 5801 5801 5801 5800 5801 5804 5807 5810 5812 5813 5818 5825 5827 5828 5829 5831 5836 5839 5841 5844 5846 5848 5851 5853 5855 5856 5858 5860 5861 5862 5864 5865 5867 5868 5869 5870 5870 5872 5873 5873 5873 5872 5872 5872 5873 5873 5873 5874 5875 5875 5875 5875 5875 5875 5875 5875 5875 5876 5875 5875 5874 5873 5873 5873 5873 5873 5873 5872 5871 5870 5869
5765 5767 5772 5773 5774 5777 5779 5781 5783 5785 5787 5789 5792 5795 5796 5796 5796 5796 5795 5796 5799 5802 5806 5808 5807 5813 5821 5823 5825 5826 5827 5832 5836 5838 5841 5844 5845 5847 5849 5852 5854 5855 5857 5858 5859 5860 5862 5864 5865 5866 5867 5868 5870 5870 5870 5869 5869 5870 5870 5870 5870 5870 5871 5872 5872 5872 5872 5873 5873 5873 5873 5873 5873 5872 5872 5871 5870 5870 5870 5870 5870 5870 5869 5868 5867 5866
5761 5763 5767 5768 5771 5773 5775 5778 5781 5782 5784 5786 5789 5790 5791 5791 5791 5792 5792 5792 5794 5797 5801 5802 5803 5808 5816 5820 5822 5823 5823 5827 5832 5834 5837 5840 5841 5843 5846 5849 5850 5852 5854 5855 5856 5857 5858 5860 5861 5862 5864 5865 5866 5866 5865 5866 5867 5868 5868 5867 5867 5867 5868 5868 5868 5868 5869 5870 5870 5870 5870 5870 5870 5870 5869 5868 5868 5867 5867 5867 5867 5866 5865 5864 5863 5862
5758 5759 5762 5764 5768 5770 5774 5777 5778 5779 5781 5783 5785 5785 5785 5786 5787 5788 5788 5788 5790 5793 5794 5797 5800 5803 5810 5816 5818 5819 5820 5822 5827 5831 5833 5835 5837 5839 5842 5845 5846 5847 5849 5850 5852 5853 5854 5856 5858 5859 5860 5860 5861 5862 5862 5863 5864 5865 5865 5865 5865 5865 5865 5865 5864 5865 5866 5866 5866 5867 5867 5867 5867 5867 5866 5865 5865 5865 5864 5864 5863 5862 5861 5861 5860 5859
5756 5757 5761 5763 5766 5770 5773 5774 5774 5776 5778 5779 5780 5780 5781 5782 5783 5785 5785 5785 5786 5787 5789 5794 5796 5796 5803 5812 5815 5815 5817 5819 5822 5827 5830 5831 5832 5835 5838 5840 5842 5843 5844 5846 5847 5849 5850 5852 5854 5855 5855 5856 5857 5858 5859 5860 5861 5861 5861 5862 5862 5862 5862 5862 5861 5862 5862 5862 5862 5863 5863 5863 5863 5863 5862 5862 5862 5861 5861 5861 5860 5859 5858 5857 5856 5855
5753 5756 5758 5759 5763 5767 5768 5768 5769 5772 5773 5774 5775 5776 5778 5778 5780 5781 5781 5782 5782 5782 5786 5791 5792 5792 5797 5806 5810 5810 5813 5816 5819 5823 5826 5827 5828 5830 5834 5836 5838 5839 5840 5842 5843 5845 5846 5848 5850 5851 5852 5853 5854 5855 5856 5857 5857 5858 5858 5858 5859 5859 5859 5859 5858 5858 5858 5858 5858 5859 5859 5859 5859 5859 5858 5858 5858 5858 5857 5857 5856 5855 5854 5854 5853 5852
5750 5753 5754 5756 5761 5763 5762 5763 5765 5767 5768 5770 5771 5773 5774 5774 5776 5777 5777 5779 5777 5779 5786 5788 5788 5788 5790 5799 5806 5807 5810 5813 5815 5818 5821 5823 5824 5826 5829 5832 5834 5835 5837 5838 5840 5842 5843 5844 5845 5847 5848 5849 5850 5851 5852 5853 5854 5854 5854 5855 5855 5856 5855 5855 5855 5855 5855 5855 5855 5855 5855 5855 5855 5854 5854 5854 5854 5854 5853 5853 5852 5851 5850 5850 5848 5847
5746 5748 5750 5754 5758 5759 5759 5760 5762 5764 5765 5766 5767 5769 5770 5771 5772 5773 5774 5775 5774 5778 5784 5784 5785 5785 5785 5795 5804 5804 5806 5810 5811 5813 5816 5818 5820 5822 5825 5827 5829 5831 5833 5835 5837 5839 5840 5840 5842 5843 5844 5845 5845 5847 5848 5849 5849 5850 5851 5851 5851 5852 5852 5852 5852 5852 5852 5851 5852 5852 5851 5851 5851 5850 5850 5850 5850 5849 5849 5848 5848 5847 5846 5845 5844 5842
5741 5744 5747 5751 5753 5755 5756 5758 5760 5761 5762 5763 5763 5765 5766 5767 5768 5769 5771 5771 5773 5777 5779 5779 5780 5780 5783 5792 5800 5802 5803 5805 5806 5808 5810 5813 5815 5817 5820 5823 5825 5827 5829 5831 5832 5834 5836 5837 5838 5839 5840 5841 5841 5843 5843 5844 5845 5846 5847 5847 5848 5848 5848 5848 5848 5848 5848 5848 5848 5848 5847 5847 5847 5847 5847 5846 5846 5845 5844 5844 5843 5842 5842 5840 5839 5838
5739 5741 5744 5748 5750 5751 5752 5755 5757 5758 5759 5759 5760 5761 5762 5764 5765 5767 5768 5769 5772 5773 5773 5774 5775 5776 5781 5788 5794 5800 5801 5800 5802 5804 5806 5808 5810 5813 5816 5818 5821 5823 5825 5826 5828 5829 5831 5832 5834 5835 5836 5836 5837 5838 5839 5840 5841 5842 5842 5843 5844 5844 5844 5844 5844 5844 5844 5844 5844 5843 5843 5843 5843 5843 5842 5842 5841 5841 5840 5839 5838 5838 5837 5835 5834 5833
5736 5739 5743 5746 5747 5749 5750 5751 5753 5754 5755 5756 5758 5759 5759 5762 5764 5765 5766 5767 5769 5769 5768 5770 5771 5773 5779 5784 5788 5794 5797 5798 5800 5801 5803 5805 5806 5808 5811 5813 5815 5818 5820 5822 5823 5824 5826 5827 5829 5830 5831 5832 5833 5834 5835 5836 5837 5838 5838 5839 5840 5840 5840 5840 5840 5840 5840 5840 5839 5839 5839 5839 5839 5839 5838 5838 5837 5836 5835 5835 5834 5833 5832 5831 5830 5829
5733 5736 5741 5743 5745 5747 5747 5749 5750 5750 5751 5753 5754 5755 5757 5760 5761 5761 5762 5764 5765 5764 5765 5767 5769 5772 5777 5779 5781 5786 5791 5796 5798 5799 5800 5801 5802 5804 5806 5809 5811 5813 5815 5817 5818 5820 5821 5822 5824 5826 5827 5828 5829 5830 5831 5832 5833 5834 5834 5835 5836 5836 5836 5836 5836 5836 5836 5836 5835 5836 5836 5836 5835 5835 5834 5833 5832 5832 5831 5830 5830 5829 5827 5826 5825 5824
5729 5732 5736 5738 5740 5742 5743 5745 5746 5747 5748 5750 5750 5753 5756 5757 5757 5758 5759 5760 5760 5760 5763 5765 5766 5769 5771 5772 5775 5779 5786 5792 5794 5796 5797 5797 5799 5801 5802 5804 5806 5808 5809 5811 5813 5815 5817 5818 5820 5822 5823 5824 5825 5826 5827 5828 5829 5830 5830 5831 5831 5832 5832 5832 5832 5832 5832 5832 5832 5832 5832 5832 5831 5830 5830 5829 5828 5827 5827 5826 5825 5824 5823 5822 5821 5820
5727 5729 5732 5735 5736 5737 5739 5740 5742 5743 5745 5746 5747 5751 5753 5752 5754 5755 5754 5755 5756 5757 5760 5763 5763 5765 5766 5766 5770 5775 5781 5787 5790 5792 5793 5794 5796 5797 5798 5799 5800 5803 5805 5806 5808 5810 5812 5814 5816 5817 5819 5820 5821 5822 5823 5823 5824 5825 5826 5826 5827 5828 5828 5828 5828 5828 5828 5828 5828 5828 5828 5827 5827 5826 5825 5824 5824 5823 5822 5821 5820 5819 5818 5818 5816 5815
5724 5726 5729 5732 5733 5734 5736 5736 5738 5740 5741 5743 5745 5747 5748 5748 5750 5751 5750 5751 5753 5753 5756 5759 5760 5760 5762 5764 5768 5772 5776 5781 5786 5788 5789 5790 5791 5792 5793 5795 5796 5798 5800 5802 5804 5805 5807 5808 5810 5812 5813 5815 5816 5817 5818 5819 5820 5821 5821 5822 5823 5823 5823 5824 5824 5824 5824 5824 5824 5824 5823 5823 5822 5821 5821 5820 5819 5818 5817 5817 5816 5815 5814 5813 5811 5810
5719 5721 5724 5728 5729 5730 5731 5732 5734 5736 5738 5740 5742 5742 5744 5745 5746 5747 5748 5749 5750 5750 5752 5754 5755 5757 5761 5763 5765 5769 5772 5775 5780 5784 5785 5785 5786 5786 5788 5790 5792 5793 5795 5797 5799 5800 5802 5803 5804 5806 5808 5809 5810 5812 5813 5814 5815 5816 5816 5817 5818 5818 5819 5819 5819 5819 5819 5819 5819 5819 5818 5818 5818 5817 5816 5815 5814 5814 5813 5812 5811 5810 5809 5807 5806 5804
5714 5716 5719 5722 5723 5724 5726 5728 5731 5733 5734 5736 5739 5740 5742 5743 5743 5744 5745 5747 5747 5747 5749 5749 5750 5756 5761 5761 5761 5764 5767 5770 5774 5778 5780 5780 5781 5781 5782 5784 5786 5787 5790 5792 5793 5795 5796 5798 5799 5801 5802 5803 5805 5806 5807 5808 5809 5810 5811 5812 5812 5813 5813 5814 5814 5814 5814 5814 5814 5814 5813 5813 5813 5812 5811 5810 5809 5809 5808 5807 5805 5804 5803 5801 5800 5798
5710 5712 5714 5717 5719 5721 5723 5725 5727 5729 5731 5733 5735 5737 5739 5740 5741 5741 5742 5744 5744 5745 5746 5746 5747 5753 5757 5756 5757 5759 5761 5764 5767 5770 5773 5774 5775 5776 5777 5778 5779 5781 5783 5785 5787 5789 5791 5792 5794 5795 5796 5798 5799 5800 5801 5802 5804 5804 5805 5806 5807 5808 5808 5809 5809 5809 5809 5809 5809 5809 5808 5808 5807 5807 5806 5805 5804 5803 5802 5801 5800 5798 5797 5795 5794 5792
5707 5709 5710 5712 5715 5717 5719 5721 5724 5726 5728 5729 5730 5733 5734 5734 5736 5736 5737 5740 5740 5741 5743 5743 5744 5749 5752 5753 5754 5754 5755 5757 5759 5763 5766 5767 5768 5770 5771 5773 5774 5775 5777 5779 5781 5783 5785 5786 5788 5789 5791 5792 5793 5794 5796 5797 5798 5799 5800 5801 5801 5802 5802 5803 5803 5803 5804 5803 5803 5803 5803 5802 5802 5801 5800 5799 5799 5798 5796 5795 5794 5792 5791 5789 5787 5786
5703 5703 5705 5708 5710 5712 5714 5717 5720 5722 5724 5725 5726 5728 5729 5729 5732 5733 5734 5736 5737 5738 5741 5741 5741 5745 5749 5751 5751 5751 5751 5752 5754 5757 5759 5760 5762 5764 5765 5767 5769 5770 5771 5772 5774 5776 5778 5780 5782 5783 5785 5786 5787 5789 5790 5791 5792 5793 5794 5795 5795 5796 5797 5797 5797 5798 5798 5798 5797 5797 5797 5796 5796 5795 5794 5793 5792 5791 5790 5789 5787 5786 5784 5782 5781 5779
5697 5696 5699 5703 5704 5706 5709 5711 5714 5717 5718 5719 5720 5722 5723 5725 5727 5729 5731 5732 5733 5736 5738 5738 5739 5742 5745 5748 5749 5748 5748 5748 5750 5752 5754 5755 5757 5758 5760 5762 5763 5764 5765 5766 5768 5769 5771 5773 5775 5777 5778 5780 5781 5782 5784 5785 5786 5787 5788 5789 5789 5790 5790 5791 5791 5791 5792 5791 5791 5791 5790 5790 5789 5788 5787 5787 5786 5785 5783 5782 5781 5779 5777 5776 5774 5772
5691 5692 5695 5697 5697 5700 5704 5708 5713 5715 5715 5715 5717 5720 5722 5724 5725 5727 5729 5730 5731 5735 5736 5735 5736 5738 5740 5744 5744 5744 5745 5746 5747 5748 5749 5750 5752 5753 5754 5756 5757 5758 5759 5761 5762 5763 5765 5767 5769 5771 5773 5774 5776 5777 5778 5779 5780 5781 5782 5783 5783 5784 5784 5785 5785 5785 5785 5785 5785 5784 5784 5783 5782 5781 5781 5780 5779 5778 5777 5775 5774 5772 5771 5769 5767 5766
5685 5687 5691 5693 5696 5701 5704 5709 5714 5715 5714 5716 5719 5721 5722 5724 5725 5726 5727 5728 5731 5733 5732 5733 5734 5734 5735 5739 5739 5739 5742 5743 5743 5744 5744 5745 5747 5748 5749 5750 5751 5752 5753 5755 5757 5758 5760 5762 5764 5766 5767 5769 5770 5771 5772 5773 5774 5775 5776 5776 5777 5777 5778 5778 5778 5778 5778 5778 5778 5777 5776 5776 5775 5775 5774 5773 5772 5771 5770 5768 5767 5765 5764 5762 5761 5760
5679 5681 5687 5691 5694 5699 5702 5705 5708 5708 5710 5713 5715 5717 5718 5720 5721 5721 5723 5726 5727 5727 5727 5730 5732 5730 5730 5734 5735 5734 5737 5740 5739 5739 5739 5740 5741 5742 5743 5744 5745 5746 5748 5750 5751 5753 5755 5757 5759 5760 5761 5763 5764 5765 5766 5767 5768 5768 5769 5770 5771 5771 5771 5771 5771 5771 5771 5771 5770 5770 5769 5769 5768 5768 5767 5766 5765 5764 5763 5761 5760 5759 5758 5756 5755 5753
5674 5678 5684 5688 5691 5695 5697 5699 5701 5703 5705 5707 5708 5711 5712 5713 5714 5715 5718 5720 5720 5721 5722 5726 5728 5727 5726 5729 5729 5729 5731 5734 5735 5734 5735 5736 5737 5737 5738 5738 5739 5740 5742 5744 5746 5747 5749 5750 5752 5753 5754 5756 5757 5758 5759 5760 5761 5762 5762 5763 5763 5764 5764 5764 5764 5764 5764 5763 5763 5763 5762 5762 5761 5760 5759 5759 5758 5757 5756 5755 5754 5752 5751 5750 5748 5747
5671 5675 5680 5683 5687 5689 5691 5694 5696 5698 5699 5700 5702 5705 5706 5708 5710 5712 5714 5715 5715 5717 5719 5719 5721 5723 5722 5723 5724 5725 5727 5730 5731 5732 5732 5732 5732 5732 5731 5731 5732 5734 5735 5737 5739 5740 5741 5743 5745 5746 5748 5750 5751 5752 5753 5754 5754 5755 5755 5756 5756 5756 5756 5756 5757 5756 5756 5756 5755 5755 5754 5754 5753 5753 5752 5751 5751 5750 5749 5748 5747 5745 5744 5743 5742 5741
5665 5669 5673 5677 5679 5682 5685 5688 5690 5691 5692 5694 5696 5699 5702 5705 5707 5708 5710 5709 5710 5713 5714 5713 5715 5719 5720 5720 5722 5725 5725 5725 5727 5728 5728 5727 5726 5724 5723 5724 5726 5728 5730 5732 5734 5735 5737 5738 5739 5741 5743 5743 5744 5745 5746 5747 5748 5748 5749 5749 5749 5749 5749 5749 5749 5749 5749 5749 5748 5748 5747 5747 5746 5746 5745 5744 5744 5743 5742 5741 5740 5739 5738 5737 5736 5734
5659 5661 5666 5670 5671 5675 5681 5682 5682 5685 5686 5686 5689 5694 5699 5701 5702 5703 5703 5704 5706 5709 5709 5709 5713 5716 5718 5720 5722 5722 5720 5719 5721 5722 5722 5720 5718 5717 5718 5720 5723 5725 5727 5729 5730 5732 5733 5734 5735 5737 5737 5738 5738 5739 5740 5740 5741 5741 5741 5741 5742 5742 5742 5743 5743 5742 5742 5742 5741 5741 5740 5740 5739 5739 5738 5738 5737 5737 5736 5735 5734 5733 5732 5730 5729 5728
5654 5656 5661 5664 5666 5671 5675 5675 5677 5678 5676 5677 5685 5694 5697 5697 5696 5696 5698 5701 5704 5705 5704 5707 5712 5713 5714 5716 5716 5715 5714 5714 5714 5715 5714 5714 5714 5714 5716 5718 5720 5722 5723 5724 5725 5727 5729 5730 5731 5732 5732 5732 5732 5732 5733 5734 5734 5734 5734 5734 5735 5735 5736 5736 5736 5736 5736 5735 5735 5734 5734 5733 5733 5733 5732 5732 5731 5731 5730 5729 5728 5727 5726 5725 5723 5722
5652 5654 5658 5661 5663 5666 5669 5671 5672 5670 5668 5675 5687 5693 5692 5691 5691 5692 5695 5700 5702 5701 5702 5705 5707 5706 5707 5709 5709 5710 5710 5709 5708 5709 5709 5709 5710 5711 5713 5714 5715 5716 5717 5718 5720 5721 5722 5723 5724 5725 5725 5725 5725 5725 5726 5727 5727 5727 5728 5728 5729 5729 5729 5730 5729 5729 5729 5729 5729 5729 5728 5728 5728 5727 5727 5726 5725 5725 5724 5723 5722 5720 5719 5718 5717 5716
5649 5652 5655 5657 5660 5662 5664 5666 5665 5663 5668 5679 5685 5685 5685 5686 5688 5690 5693 5696 5696 5696 5698 5700 5700 5701 5702 5704 5705 5705 5705 5703 5702 5704 5705 5705 5706 5707 5709 5710 5710 5710 5711 5713 5714 5714 5715 5716 5717 5717 5718 5718 5718 5719 5719 5720 5721 5721 5722 5722 5723 5723 5723 5723 5723 5723 5723 5723 5723 5723 5722 5722 5722 5721 5720 5720 5719 5718 5717 5716 5715 5714 5713 5711 5710 5709
5644 5647 5649 5652 5654 5656 5657 5658 5658 5662 5671 5677 5677 5678 5681 5684 5686 5687 5687 5689 5691 5692 5693 5696 5698 5698 5698 5699 5700 5699 5698 5696 5697 5701 5702 5701 5702 5704 5704 5704 5704 5705 5706 5707 5707 5708 5709 5710 5711 5712 5712 5712 5713 5713 5714 5714 5715 5715 5716 5716 5716 5716 5716 5716 5717 5717 5717 5717 5717 5717 5716 5716 5715 5715 5714 5713 5712 5711 5710 5709 5708 5707 5705 5704 5703 5701
5638 5640 5643 5645 5647 5649 5651 5653 5656 5662 5666 5668 5670 5674 5676 5679 5682 5681 5680 5683 5687 5688 5689 5692 5694 5693 5693 5694 5694 5694 5692 5690 5694 5699 5699 5697 5698 5699 5698 5698 5699 5700 5701 5701 5702 5703 5704 5705 5706 5707 5707 5707 5708 5708 5708 5708 5708 5709 5710 5710 5710 5710 5710 5710 5711 5710 5710 5710 5710 5710 5710 5709 5709 5708 5707 5706 5706 5705 5703 5702 5701 5700 5698 5697 5695 5694
5632 5634 5637 5639 5640 5643 5645 5648 5651 5653 5656 5660 5665 5667 5668 5674 5678 5676 5674 5679 5684 5685 5685 5687 5688 5687 5689 5690 5690 5689 5686 5686 5692 5696 5693 5692 5693 5693 5692 5693 5695 5696 5697 5697 5698 5699 5699 5699 5700 5701 5702 5702 5702 5702 5702 5702 5702 5703 5703 5703 5703 5704 5704 5704 5704 5704 5704 5704 5704 5703 5703 5703 5702 5701 5701 5700 5699 5698 5696 5695 5694 5692 5691 5689 5688 5686
5626 5629 5632 5633 5634 5637 5639 5641 5643 5646 5651 5658 5661 5663 5666 5670 5672 5671 5670 5675 5681 5682 5680 5681 5682 5683 5684 5685 5684 5683 5683 5685 5689 5687 5685 5687 5689 5688 5688 5690 5691 5691 5693 5693 5693 5694 5694 5694 5695 5695 5696 5696 5696 5696 5696 5695 5695 5696 5696 5697 5697 5697 5698 5698 5698 5698 5698 5697 5697 5697 5696 5696 5695 5694 5694 5693 5692 5690 5689 5688 5687 5685 5684 5682 5680 5678
5619 5622 5624 5624 5627 5632 5635 5636 5638 5643 5649 5653 5656 5659 5663 5664 5665 5665 5665 5669 5675 5677 5677 5677 5678 5678 5679 5679 5678 5679 5680 5683 5682 5678 5678 5683 5684 5683 5685 5686 5685 5686 5687 5687 5688 5689 5689 5690 5690 5690 5690 5690 5690 5689 5690 5689 5690 5690 5691 5690 5691 5691 5691 5691 5691 5691 5690 5690 5690 5689 5689 5689 5688 5687 5686 5685 5684 5683 5682 5680 5679 5678 5676 5674 5672 5670
5613 5616 5617 5620 5624 5628 5630 5631 5635 5640 5646 5649 5651 5655 5658 5657 5656 5657 5660 5665 5669 5671 5674 5674 5673 5673 5673 5672 5673 5675 5676 5677 5676 5673 5673 5677 5677 5677 5679 5680 5680 5681 5681 5681 5682 5682 5683 5684 5684 5684 5684 5684 5684 5684 5684 5684 5684 5685 5684 5684 5685 5684 5684 5684 5683 5683 5683 5683 5683 5682 5681 5681 5680 5679 5679 5678 5677 5675 5674 5673 5671 5670 5668 5666 5665 5663
5608 5610 5612 5615 5619 5623 5626 5629 5632 5637 5644 5647 5647 5647 5648 5647 5648 5653 5659 5662 5663 5666 5667 5667 5667 5669 5669 5667 5669 5670 5670 5671 5671 5669 5669 5670 5671 5671 5672 5674 5675 5675 5675 5675 5675 5676 5676 5677 5677 5677 5678 5678 5678 5678 5678 5678 5678 5678 5678 5678 5678 5677 5676 5676 5676 5676 5676 5676 5675 5675 5674 5673 5673 5672 5671 5670 5669 5667 5666 5665 5663 5662 5660 5658 5657 5655
5604 5605 5606 5610 5614 5618 5621 5623 5626 5633 5641 5643 5640 5639 5640 5642 5648 5655 5657 5655 5656 5659 5658 5658 5660 5663 5662 5662 5663 5664 5664 5665 5666 5666 5665 5665 5665 5665 5665 5667 5668 5669 5670 5670 5670 5670 5670 5670 5670 5671 5671 5671 5671 5671 5671 5671 5671 5671 5671 5671 5670 5669 5669 5669 5669 5669 5669 5668 5667 5667 5666 5665 5665 5664 5663 5662 5661 5659 5658 5657 5655 5653 5652 5650 5649 5647
5597 5599 5601 5605 5609 5610 5611 5615 5623 5632 5638 5638 5636 5636 5639 5642 5645 5648 5647 5647 5648 5649 5649 5650 5651 5653 5655 5657 5658 5659 5660 5660 5660 5661 5661 5660 5660 5660 5660 5661 5662 5663 5664 5665 5664 5664 5665 5664 5664 5664 5664 5664 5664 5664 5664 5664 5664 5663 5663 5663 5662 5662 5662 5662 5661 5661 5661 5660 5659 5659 5658 5657 5656 5655 5654 5653 5653 5651 5650 5648 5647 5645 5644 5642 5640 5639
5591 5594 5597 5600 5603 5604 5608 5616 5623 5628 5631 5630 5630 5632 5634 5635 5635 5635 5636 5638 5640 5641 5642 5644 5644 5645 5648 5650 5651 5652 5654 5654 5655 5655 5655 5655 5655 5655 5654 5654 5655 5656 5657 5658 5659 5659 5659 5658 5658 5658 5658 5658 5658 5657 5657 5657 5657 5656 5656 5655 5655 5655 5654 5654 5653 5653 5652 5652 5651 5650 5649 5649 5648 5647 5646 5645 5644 5643 5641 5640 5639 5637 5635 5634 5632 5631
5588 5591 5592 5596 5599 5601 5606 5613 5617 5620 5622 5622 5622 5623 5624 5626 5627 5627 5628 5630 5632 5634 5636 5637 5638 5640 5641 5642 5643 5645 5646 5647 5649 5649 5649 5649 5649 5649 5648 5648 5648 5649 5650 5650 5651 5652 5652 5652 5652 5652 5652 5651 5651 5651 5651 5650 5650 5650 5649 5648 5648 5647 5647 5646 5645 5645 5644 5643 5643 5642 5641 5640 5640 5639 5638 5637 5636 5634 5633 5631 5630 5628 5627 5625 5624 5622
5583 5586 5587 5590 5592 5594 5599 5606 5611 5613 5615 5615 5615 5616 5616 5618 5620 5621 5621 5623 5624 5626 5627 5630 5631 5633 5634 5636 5637 5638 5638 5640 5642 5643 5644 5644 5643 5643 5643 5642 5642 5642 5643 5643 5644 5644 5644 5645 5645 5644 5645 5644 5644 5644 5644 5644 5644 5643 5642 5641 5641 5640 5640 5639 5638 5637 5637 5636 5635 5634 5633 5632 5631 5630 5629 5628 5627 5625 5624 5622 5621 5619 5618 5617 5615 5614
5579 5581 5581 5583 5585 5589 5596 5603 5605 5605 5606 5608 5608 5608 5608 5609 5611 5612 5614 5615 5618 5619 5620 5622 5623 5624 5627 5629 5630 5630 5631 5632 5634 5636 5637 5638 5638 5638 5637 5637 5636 5636 5636 5636 5636 5637 5637 5637 5637 5637 5637 5637 5637 5637 5637 5636 5636 5636 5635 5634 5633 5632 5632 5631 5630 5629 5628 5627 5627 5626 5625 5624 5623 5621 5620 5619 5618 5616 5615 5613 5612 5611 5609 5608 5607 5606
5574 5575 5576 5579 5582 5585 5590 5595 5596 5596 5598 5600 5601 5601 5602 5602 5603 5605 5607 5608 5610 5612 5613 5613 5614 5615 5617 5619 5621 5623 5624 5625 5627 5628 5629 5630 5631 5632 5632 5632 5631 5630 5630 5629 5628 5628 5629 5629 5629 5630 5630 5630 5630 5630 5630 5629 5629 5628 5628 5627 5625 5624 5623 5622 5622 5621 5620 5619 5618 5617 5616 5615 5614 5613 5611 5610 5609 5607 5606 5605 5603 5602 5600 5599 5598 5597
5565 5567 5571 5573 5573 5575 5581 5587 5588 5589 5591 5594 5597 5598 5597 5596 5596 5597 5599 5600 5601 5602 5603 5604 5605 5607 5608 5610 5613 5615 5616 5618 5619 5620 5621 5622 5623 5624 5625 5626 5626 5625 5624 5623 5622 5621 5621 5621 5622 5623 5623 5623 5623 5623 5622 5622 5621 5621 5620 5619 5618 5617 5616 5615 5614 5613 5612 5611 5610 5609 5608 5606 5605 5604 5603 5601 5600 5599 5597 5596 5595 5593 5592 5591 5590 5589
5557 5560 5564 5565 5565 5571 5578 5582 5582 5582 5585 5588 5590 5590 5589 5588 5589 5589 5590 5592 5592 5593 5594 5596 5598 5599 5601 5602 5604 5606 5608 5609 5610 5612 5613 5613 5614 5615 5617 5618 5618 5618 5617 5617 5616 5615 5615 5615 5615 5615 5615 5615 5615 5615 5615 5614 5613 5613 5612 5611 5610 5609 5609 5608 5607 5606 5605 5603 5602 5600 5599 5598 5597 5596 5594 5593 5592 5590 5589 5588 5587 5585 5584 5583 5582 5580